Regional Weather Roundup
Issued by NWS Albany, NY

Home | Current Version | Previous Version | Graphics & Text | Print | Product List | Glossary On
Versions: 1 2 3 4 5 6 7 8 9 10 11 12 13 14 15 16 17 18 19 20 21 22 23 24 25 26 27 28 29 30 31 32 33 34 35 36 37 38 39 40 41 42 43 44 45 46 47 48 49 50
000
ASUS41 KALY 251810
RWRALY

NEW YORK STATE HOURLY WEATHER ROUNDUP
NATIONAL WEATHER SERVICE ALBANY NY
200 PM EDT TUE APR 25 2017

NOTE: "FAIR" INDICATES FEW OR NO CLOUDS BELOW 12,000 FEET WITH NO
SIGNIFICANT WEATHER AND/OR NO OBSTRUCTIONS TO VISIBILITY.

NYZ032-033-038>043-046>054-057>066-NYZ062>081-082-084-251900-
EAST


CITY           SKY/WX    TMP DP  RH WIND       PRES   REMARKS
ALBANY         CLOUDY    52  47  83 N6        30.17F
GLENS FALLS    CLOUDY    51  45  79 NW8       30.18F
POUGHKEEPSIE   CLOUDY    54  51  90 N8        30.08F
NEWBURGH       CLOUDY    54  52  94 E10       30.09F
MONTGOMERY     CLOUDY    53  49  86 NE14      30.07F
WHITE PLAINS   LGT RAIN  55  52  89 E10G22    30.04F
ISLIP          LGT RAIN  55  54  96 NE14G25   30.04F FOG
NEW YORK CITY  CLOUDY    55  51  86 NE23G32   30.02F
CENTRAL PARK   CLOUDY    54  51  90 NE12G23   30.04F
$$

NYZ005>009-017-018-044>046-055-056-251900-
CENTRAL


CITY           SKY/WX    TMP DP  RH WIND       PRES   REMARKS
FULTON         LGT RAIN  54  47  77 SE10G18   30.03F
SYRACUSE       PTSUNNY   54  47  77 E15G22    30.04F
ROME           LGT RAIN  51  47  86 E15G21    30.12F
ELMIRA         CLOUDY    59  47  64 SE7G17    30.01F
BINGHAMTON     CLOUDY    53  47  79 SE14      30.03F
MONTICELLO     CLOUDY    48  46  93 E14G23    30.07F
$$

NYZ026>034-041>043-087-251900-
NORTH


CITY           SKY/WX    TMP DP  RH WIND       PRES   REMARKS
WATERTOWN      LGT RAIN  52  49  89 E7        30.07F FOG
FORT DRUM      NOT AVBL
OGDENSBURG     DRIZZLE   51  47  86 E5        30.12F
MASSENA        LGT RAIN  52  38  58 NE6       30.16F
SARANAC LAKE   LGT RAIN  51  45  79 E9        30.12F
PLATTSBURGH    LGT RAIN  54  41  61 S14       30.20F
$$

NYZ001>004-010>016-019>021-085-251900-
WEST


CITY           SKY/WX    TMP DP  RH WIND       PRES   REMARKS
NIAGARA FALLS  LGT RAIN  58  51  78 E10       29.92F
BUFFALO        CLOUDY    58  52  80 E8        29.93F
DUNKIRK        CLOUDY    63  55  75 E9        29.89F
JAMESTOWN      CLOUDY    57  52  82 SE7       29.90F
WELLSVILLE     CLOUDY    65  51  60 SE9       29.96F
ROCHESTER      LGT RAIN  58  51  78 SE13      29.99F
PENN YAN       CLOUDY    59  47  64 SE8       30.01F
$$

             KEY
       WCI = WIND CHILL INDEX
       VSB = VISIBILITY
       HX  = HEAT INDEX
$$



USA.gov is the U.S. government's official web portal to all federal, state and local government web resources and services.